Weather History for Port Hope, MI

Change the Weather History Date:

Tuesday, April 15, 2014

  Actual Average Record
Temperature  
Mean Temperature 28 °F -  
Max Temperature 30 °F 49 °F 82 °F (2003)
Min Temperature 26 °F 35 °F 26 °F (2014)
Degree Days  
Heating Degree Days 37    
Moisture  
Dew Point 19 °F    
Average Humidity 69    
Maximum Humidity 92    
Minimum Humidity 43    
Precipitation  
Precipitation 0.08 in - - ()
Sea Level Pressure  
Sea Level Pressure 29.97 in    
Wind  
Wind Speed 11 mph (NW)    
Max Wind Speed 15 mph    
Max Gust Speed 29 mph    
Averages and records for this station are not official NWS values.
T = Trace of Precipitation, MM = Missing Value Source: NWS Daily Summary

Daily Weather History Graph

Daily Weather History Graph

Search for Another Location

Airport:

Trip Planner

Search our weather history database for the weather conditions in past years. The results will help you decide how hot, cold, wet, or windy it might be!

Date:

Astronomy

Apr. 15, 2014 Rise Set
Actual Time 6:47 AM EDT 8:15 PM EDT
Civil Twilight 6:17 AM EDT 8:45 PM EDT
Nautical Twilight 5:41 AM EDT 9:21 PM EDT
Astronomical Twilight 5:02 AM EDT 10:00 PM EDT
Moon 8:56 PM EDT (4/15) 6:54 AM EDT (4/15)
Length of Visible Light 14h 27m
Length of Day
13h 27m
Full, 100% of the Moon is Illuminated
Apr 15
Full
Apr 22
Last Quarter
Apr 29
New
May 6
First Quarter
May 14
Full

Hourly Weather History & Observations

Time (EDT) Temp. Windchill Dew Point Humidity Pressure Visibility Wind Dir Wind Speed Gust Speed Precip Events Conditions
12:51 AM 30.0 °F 20.5 °F 27.0 °F 88% 29.81 in - NW 11.5 mph 20.7 mph 0.04 in   Unknown
1:51 AM 30.0 °F 22.4 °F 27.0 °F 88% 29.79 in - NNW 8.1 mph 20.7 mph 0.02 in   Unknown
2:51 AM 30.0 °F 19.5 °F 27.0 °F 88% 29.79 in - NW 13.8 mph 23.0 mph 0.02 in   Unknown
3:51 AM 28.9 °F 19.2 °F 27.0 °F 92% 29.78 in - NW 11.5 mph 20.7 mph N/A   Unknown
4:51 AM 28.9 °F 18.6 °F 26.1 °F 89% 29.80 in - NW 12.7 mph 21.9 mph N/A   Unknown
5:51 AM 28.9 °F 18.6 °F 25.0 °F 85% 29.82 in - NW 12.7 mph 23.0 mph N/A   Unknown
6:51 AM 28.0 °F 17.0 °F 23.0 °F 81% 29.83 in - NW 13.8 mph 20.7 mph N/A   Unknown
7:51 AM 28.0 °F 17.5 °F 19.9 °F 72% 29.86 in - NW 12.7 mph 21.9 mph N/A   Unknown
8:51 AM 28.0 °F 17.0 °F 19.9 °F 72% 29.88 in - NW 13.8 mph 24.2 mph N/A   Unknown
9:51 AM 28.0 °F 16.5 °F 19.0 °F 69% 29.90 in - NW 15.0 mph 28.8 mph N/A   Unknown
10:51 AM 27.0 °F 16.1 °F 18.0 °F 69% 29.92 in - NW 12.7 mph 21.9 mph N/A   Unknown
11:51 AM 26.1 °F 15.6 °F 19.0 °F 75% 29.95 in - NW 11.5 mph 23.0 mph N/A   Unknown
12:51 PM 26.1 °F 15.6 °F 19.0 °F 75% 29.98 in - NW 11.5 mph 21.9 mph N/A   Unknown
1:51 PM 26.1 °F 15.0 °F 19.9 °F 78% 29.99 in - NW 12.7 mph - N/A   Unknown
2:51 PM 28.0 °F 19.3 °F 19.0 °F 69% 30.02 in - NW 9.2 mph - N/A   Unknown
3:51 PM 28.0 °F 19.3 °F 17.1 °F 63% 30.04 in - NW 9.2 mph 20.7 mph N/A   Unknown
4:51 PM 28.9 °F 19.2 °F 17.1 °F 61% 30.05 in - NW 11.5 mph 20.7 mph N/A   Unknown
5:51 PM 28.9 °F 22.8 °F 16.0 °F 58% 30.08 in - NNW 5.8 mph - N/A   Unknown
6:51 PM 28.9 °F 20.4 °F 12.0 °F 49% 30.10 in - NW 9.2 mph 20.7 mph N/A   Unknown
7:51 PM 28.9 °F 19.2 °F 12.0 °F 49% 30.12 in - NW 11.5 mph 21.9 mph N/A   Unknown
8:51 PM 28.0 °F 20.0 °F 10.9 °F 49% 30.17 in - NW 8.1 mph 17.3 mph N/A   Unknown
9:51 PM 27.0 °F 23.0 °F 7.0 °F 43% 30.20 in - West 3.5 mph - N/A   Unknown
10:51 PM 27.0 °F 20.5 °F 8.1 °F 45% 30.22 in - Variable 5.8 mph - N/A   Unknown
11:51 PM 27.0 °F 23.0 °F 9.0 °F 47% 30.24 in - West 3.5 mph - N/A   Unknown